Welcome to the New NWS' Forecast!
Most changes are behind the scenes, but click here for differences you might notice.
Latest weather observations around

Whidbey Island, Naval Air Station (KNUW)

Using English Units (Switch to International System of Units)
Date/ Time (PDT) Wind (mph) Vis. (mi) Weather Sky Cond. Temp (°F) Rel. Humidity Wind Chill (°F) Heat Index (°F) Pressure Precip. (in)
Air Dwpt 6 hour Altimeter (inHg) Sea level (inHg) 1 hr 3 hr 6 hr
Max Min
Sep 19 20:56 SW 9 6 Light Rain and Fog/Mist OVC055 58 51     78%         0    
Sep 19 19:56 SW 11 10 Cloudy FEW018 BKN065 OVC090 60 50     69%     30.11 30.1      
Sep 19 18:56 WSW 5 10 Cloudy FEW025 OVC070 61 50     67%     30.1 30.1      
Sep 19 17:56 W 3 10 Mostly Cloudy FEW030 BKN055 BKN090 BKN250 60 51     72%     30.1 30.1      
Sep 19 16:56 W 6 10 Mostly Cloudy BKN040 BKN060 BKN100 61 48     62%     30.11        
Sep 19 15:56 W 6 10 Mostly Cloudy SCT040 BKN100 BKN250 63 48     58%     30.1 30.1      
Sep 19 14:56 NW 6 10 Partly Cloudy FEW035 SCT110 SCT250 65 46     50%     30.1 30.1      
Sep 19 13:56 NW 5 10 Partly Cloudy FEW035 FEW100 SCT200 65 46     50%     30.11 30.11      
Sep 19 12:56 WNW 7 10 Mostly Cloudy FEW025 SCT120 BKN250 62 48     60%     30.12 30.11      
Sep 19 11:56 W 8 10 Mostly Cloudy FEW025 SCT120 BKN250 62 48     60%     30.13 30.13      
Sep 19 10:56 W 8 10 Mostly Cloudy FEW020 SCT140 BKN250 62 49     62%     30.14 30.13      
Sep 19 09:56 SSE 7 10 Mostly Cloudy FEW020 SCT150 BKN250 60 50     69%     30.14 30.14      
Sep 19 08:56 SSE 5 10 Mostly Cloudy FEW006 SCT015 SCT150 BKN250 55 50     83%     30.14 30.14      
Sep 19 07:56 SE 5 5 Fog/Mist and Patchy Fog SCT012 SCT150 BKN250 50 46     86%     30.14 30.13      
Sep 19 07:29 ESE 3 6 Fog/Mist SCT012 SCT150 BKN250 49 46     90% 48   30.13        
Sep 19 06:56 ESE 5 8 Cloudy BKN010 OVC230 50 46     86%     30.12 30.12      
Sep 19 06:49 SE 5 10 Cloudy OVC011 50 46     86%     30.12        
Sep 19 05:56 ESE 3 5 Fog/Mist and Patchy Fog BKN007 BKN230 49 45     86% 48   30.11 30.11      
Sep 19 04:56 ESE 5 10 Partly Cloudy FEW007 SCT220 49 45     86% 47   30.11 30.11      
Sep 19 04:45 ESE 5 10 Partly Cloudy FEW007 SCT210 50 46     86%     30.11        
Sep 19 03:56 SE 6 10 Mostly Clear FEW220 49 44     83% 46   30.12 30.11      
Sep 19 02:56 SE 5 10 Partly Cloudy SCT220 48 44     86% 46   30.11 30.11      
Sep 19 01:56 SE 5 10 Mostly Cloudy SCT210 BKN240 49 44     83% 47   30.11 30.1      
Sep 19 00:56 ESE 3 10 Mostly Cloudy SCT220 BKN250 51 46     83%     30.11 30.1      
Sep 18 23:56 ESE 3 10 Mostly Cloudy SCT210 BKN240 48 44     86% 47   30.11 30.1      
Sep 18 22:56 Calm 10 Partly Cloudy SCT210 51 47     86%     30.11 30.11      
Sep 18 21:56 Calm 10 Mostly Cloudy FEW200 BKN240 52 47     83%     30.12 30.12      
Sep 18 20:56 Calm 10 Mostly Cloudy FEW030 SCT190 BKN210 BKN240 54 49     83%     30.13 30.12      
Sep 18 19:56 Calm 10 Mostly Cloudy FEW050 BKN210 BKN240 55 49     80%     30.12 30.12      
Sep 18 18:56 WSW 5 10 Mostly Cloudy FEW030 FEW060 BKN220 BKN250 56 49     77%     30.12 30.11      
Sep 18 17:56 WSW 6 10 Partly Cloudy FEW040 SCT150 SCT230 58 49     72%     30.12 30.11      
Sep 18 16:56 W 7 10 Partly Cloudy FEW035 FEW120 SCT200 SCT250 60 49     67%     30.13 30.12      
Sep 18 15:56 W 7 10 Partly Cloudy FEW035 SCT210 SCT240 61 48     62%     30.13 30.13      
Sep 18 14:56 W 8 10 Partly Cloudy FEW020 SCT035 SCT240 61 49     64%     30.15 30.14      
Sep 18 13:56 W 8 10 Partly Cloudy FEW022 SCT035 SCT240 61 49     64%     30.16 30.16      
Sep 18 12:56 W 8 10 Partly Cloudy FEW025 SCT250 60 49     67%     30.17 30.17      
Sep 18 11:56 WNW 7 10 Partly Cloudy FEW025 FEW040 SCT250 60 49     67%     30.18 30.17      
Sep 18 11:24 W 7 10 Mostly Cloudy SCT020 BKN250 59 50     72%     30.18        
Sep 18 11:06 W 7 10 Mostly Cloudy BKN020 BKN250 59 50     72%     30.18        
Sep 18 10:56 WNW 7 10 Partly Cloudy SCT020 58 49     72%     30.18 30.18      
Sep 18 08:56 W 6 10 Mostly Cloudy BKN020 BKN250 55 50     83%     30.18 30.17      
Sep 18 07:56 Calm 10 Mostly Cloudy FEW009 BKN016 BKN250 53 49     86%     30.18 30.17      
Sep 18 06:56 Calm 9 Mostly Cloudy FEW003 BKN018 BKN250 50 46     86%     30.17 30.17      
Sep 18 06:03 Calm 6 Fog/Mist and Patchy Fog FEW003 BKN020 45 42     90%     30.16        
Sep 18 05:56 Calm 5 Fog/Mist and Patchy Fog FEW003 SCT017 46 42     86%     30.17 30.16      
Sep 18 04:56 Calm 7 Patchy Fog FEW003 SCT017 48 44     86%     30.16 30.16      
Sep 18 03:56 SE 3 8 Mostly Clear FEW003 FEW014 47 44     90% 46   30.16 30.16      
Sep 18 03:16 ESE 5 7 Patchy Fog FEW004 FEW014 47 43     86% 45   30.16        
Sep 18 02:56 ESE 3 10 Patchy Fog FEW014 47 44     90% 46   30.16 30.16      
Sep 18 01:56 Calm 10 Clear CLR 49 45     86%     30.16 30.16      
Sep 18 00:56 W 3 10 Clear CLR 51 46     83%     30.16 30.15      
Sep 17 23:56 Calm 10 Clear CLR 51 46     83%     30.16 30.16      
Sep 17 22:56 Calm 10 Clear CLR 52 46     80%     30.16 30.16      
Sep 17 21:56 Calm 10 Mostly Clear FEW250 54 48     80%     30.16 30.16      
Sep 17 20:56 Calm 10 Partly Cloudy FEW100 SCT250 53 48     83%     30.16 30.15      
Sep 17 19:56 Calm 10 Partly Cloudy FEW040 FEW100 SCT250 53 47     80%     30.15 30.15      
Sep 17 18:56 W 5 10 Partly Cloudy FEW045 SCT250 56 47     72%     30.15 30.15      
Sep 17 17:56 W 6 10 Partly Cloudy FEW040 FEW090 SCT250 58 49     72%     30.15 30.14      
Sep 17 16:56 WSW 9 10 Partly Cloudy FEW040 FEW100 SCT250 60 48     64%     30.15 30.15      
Sep 17 15:56 W 8 10 Partly Cloudy FEW040 SCT250 60 46     60%     30.16 30.16      
Sep 17 14:56 W 7 10 Partly Cloudy FEW020 SCT035 SCT250 60 49     67%     30.16 30.16      
Sep 17 13:56 W 8 10 Partly Cloudy FEW022 SCT035 SCT250 59 49     69%     30.18 30.17      
Sep 17 12:56 W 7 10 Partly Cloudy FEW025 SCT040 SCT250 60 47     62%     30.19 30.19      
Sep 17 11:56 W 7 10 Partly Cloudy FEW025 FEW040 SCT070 61 46     58%     30.2 30.2      
Sep 17 10:56 W 5 10 Partly Cloudy FEW025 SCT045 60 46     60%     30.2 30.2      
Sep 17 09:56 WSW 5 10 Partly Cloudy FEW010 FEW020 SCT045 57 44     62%     30.2 30.19      
Sep 17 09:44 3 10 Mostly Cloudy FEW008 FEW020 BKN040 57 44     62%     30.19        
Sep 17 08:56 Calm 10 Patchy Fog FEW041 54 47     77%     30.19 30.19      
Sep 17 07:56 SE 3 8 Patchy Fog FEW015 FEW045 SCT060 52 47     83%     30.18 30.18      
Sep 17 07:09 ESE 6 1.75 Patchy Fog CLR 48 44     86% 45   30.18        
Sep 17 06:56 Calm 8 Patchy Fog FEW014 SCT045 SCT060 49 44     83%     30.18 30.17      
Sep 17 05:56 E 3 10 Cloudy FEW015 SCT040 OVC060 52 47     83%     30.17 30.17      
Sep 17 04:56 SW 5 10 Mostly Cloudy SCT040 BKN045 BKN055 54 47     77%     30.17 30.16      
Sep 17 03:56 SE 5 10 Cloudy BKN037 OVC042 54 49     83%     30.17 30.16      
Sep 17 02:56 SE 3 10 Mostly Cloudy BKN037 BKN044 54 48     80%     30.16 30.16      
Sep 17 01:56 Calm 10 Cloudy BKN038 OVC050 56 49     77%     30.16 30.15      
Sep 17 00:56 SSE 3 10 Cloudy BKN037 OVC044 55 48     77%     30.15 30.14      
Sep 16 23:56 SW 3 10 Cloudy BKN039 BKN055 OVC070 56 48     75%     30.14 30.13      
Sep 16 22:56 Calm 10 Partly Cloudy SCT036 SCT100 54 47     77%     30.12 30.12      
Sep 16 21:56 WSW 6 10 Partly Cloudy FEW020 SCT110 56 48     75%     30.11 30.1      
Sep 16 20:56 WNW 8 10 Partly Cloudy FEW018 SCT060 SCT080 58 48     70%     30.09 30.09      
Sep 16 19:56 Calm 10 Partly Cloudy FEW032 FEW080 SCT100 56 48     75%     30.06 30.06      
Sep 16 18:56 Calm 10 Partly Cloudy FEW032 SCT080 SCT100 59 49     69%     30.05 30.04      
Sep 16 17:56 W 3 10 Mostly Cloudy FEW032 BKN080 BKN250 62 49     62%     30.02 30.02      
Sep 16 16:56 WNW 8 10 Mostly Cloudy FEW032 BKN070 BKN090 BKN250 61 48     62%     30 30     0
Sep 16 15:56 Calm 10 Mostly Cloudy FEW016 BKN035 BKN060 59 52     78%     29.99 29.98 0    
Sep 16 14:56 S 13 10 Cloudy BKN030 BKN045 OVC070 65 49     56%     29.96 29.96 0    
Sep 16 13:56   10 Mostly Cloudy FEW030 BKN075 BKN100 BKN250 65 50     58%     29.93 29.93   0  
Sep 16 12:56 SSE 17 10 Mostly Cloudy FEW025 BKN040 BKN100 BKN250 64 51     63%     29.91 29.91      
Sep 16 11:56   10 Mostly Cloudy SCT012 BKN080 BKN120 BKN200 63 52     67%     29.9 29.9 0    
Sep 16 09:56   5 Light Rain and Fog/Mist SCT012 BKN065 OVC090 58 53     84%     29.86 29.86 0    
Sep 16 08:56   6 Fog/Mist FEW007 BKN012 BKN025 58 53     84%     29.84 29.83      
Sep 16 08:23   0.5 Heavy Rain and Fog BKN012 OVC025 58 53     84%     29.83        
Sep 16 07:56 SSE 14 3 Rain and Fog/Mist BKN012 OVC020 58 52     81%     29.83 29.83 0 0  
Sep 16 06:56 SE 14 5 Light Rain and Fog/Mist BKN020 OVC035 59 51     75%     29.81 29.81 0    
Sep 16 05:56 SE 18 6 Fog/Mist BKN020 BKN060 OVC090 59 51     75%     29.8 29.8 0    
Sep 16 04:56 SE 20 10 Cloudy and Windy FEW028 SCT060 OVC110 61 49     64%     29.8 29.8     0
Sep 16 03:56 SE 20 10 Cloudy and Windy SCT100 BKN120 OVC140 60 49     67%     29.81 29.81      
Sep 16 02:56 SE 17 10 Mostly Cloudy BKN120 BKN160 60 50     69%     29.82 29.82      
Sep 16 01:56   10 Cloudy FEW050 BKN095 OVC120 60 51     72%     29.83 29.83 0 0  
Sep 16 00:56   10 Light Rain FEW060 BKN090 OVC110 60 51     72%     29.84 29.84 0    
Sep 15 23:56   10 Mostly Cloudy FEW020 SCT100 BKN120 60 51     72%     29.85 29.85      
Sep 15 23:29 SE 16 10 Cloudy SCT017 BKN100 OVC120 60 52     75%     29.86        
Sep 15 22:56 ESE 16 10 Cloudy BKN019 BKN090 OVC150 60 52     75%     29.86 29.85     0
Sep 15 22:24 SE 20 10 Cloudy and Windy BKN016 BKN090 BKN110 OVC180 60 52     75%     29.86        
Sep 15 21:56 SE 18 10 Mostly Cloudy SCT018 SCT110 BKN120 60 52     75%     29.87 29.86      
Sep 15 20:56 SE 13 10 Cloudy SCT060 SCT080 OVC100 59 50     72%     29.87 29.87      
Sep 15 19:56 SE 15 10 Cloudy SCT036 SCT055 OVC085 60 52     75%     29.86 29.86 0 0  
Sep 15 18:56 SE 10 10 Light Rain OVC090 60 54     80%     29.86 29.86 0    
Sep 15 17:56 SSE 11 10 Light Rain BKN043 BKN055 OVC070 65 50     58%     29.86 29.86 0    
Sep 15 16:56 SE 14 10 Mostly Cloudy SCT033 BKN047 BKN085 BKN250 67 50     55%     29.86 29.86     0
Sep 15 15:56 SE 13 10 Mostly Cloudy SCT036 BKN049 BKN090 BKN250 68 51     55%     29.87 29.86      
Sep 15 14:56 SSE 13 10 Mostly Cloudy SCT026 BKN038 BKN090 BKN250 66 50     56%     29.87 29.87      
Sep 15 13:56 SSE 13 10 Mostly Cloudy SCT031 BKN055 BKN080 BKN250 65 51     61%     29.88 29.88 0 0  
Sep 15 12:56 SSE 13 8 Light Rain SCT022 BKN060 OVC095 62 52     70%     29.88 29.88 0    
Sep 15 11:56 SSE 14 10 Light Rain BKN025 BKN050 BKN080 63 52     67%     29.88 29.88 0    
Sep 15 10:56 SSE 15 10 Cloudy SCT016 BKN055 OVC080 63 53     70%     29.88 29.88 0   0
May 15 05:56 SW 10 1 Fog/Mist SKC BKN005 OVC120 53 50     89%     29.95        
May 15 03:40 SW 6 1.5 Fog/Mist SCT004 SCT120 53 50     89%     29.93        
May 14 10:56 W 7 10 Partly Cloudy SCT250 64 53     67%     30 30      
May 13 15:56 W 5 10 Partly Cloudy SCT250 70 54     57%       29.96      
May 13 10:56 W 9 10 Mostly Clear FEW250 65 53     65%     30.02 30.01      
May 13 09:56 WNW 5 10 Clear CLR 63 53     70%     30.02 30.02      
May 12 16:56 WSW 7 10 Mostly Clear FEW250 64 51     63%       30.06      
May 11 19:56 W 3 10 Mostly Clear FEW035 56 50     80%     30.23 30.23      
May 11 06:56   10 Mostly Cloudy BKN026 BKN200 53 47     80%     30.28 30.28 0    
Jun 12 05:56 SW 10 8 Cloudy BKN009 OVC055 55 50     83%     30.03        
Jun 11 19:56 WSW 7 10 Partly Cloudy FEW055 FEW120 SCT170 SCT250 59 47     64%     30.03 30.03      
Jun 11 18:56 W 9 10 Partly Cloudy FEW050 FEW110 SCT210 SCT250 59 48     67%     30.02 30.02      
Jun 10 18:56 WSW 3 10 Mostly Cloudy FEW050 SCT080 SCT120 BKN240 57 47     69%     29.92        
Jun 10 16:56 WSW 11 10 Mostly Cloudy FEW030 SCT045 SCT070 SCT210 BKN250 58 47     67%     29.91        
Jun 10 14:56 W 9 10 Mostly Cloudy FEW026 SCT042 SCT110 BKN220 BKN250 59 47     64%     29.91 29.91      
Jun 09 23:56 SE 7 10 Mostly Cloudy FEW032 BKN070 BKN090 54 45     72%     29.88 29.88      
Jun 08 18:56 ESE 5 10 Light Rain SCT032 BKN045 BKN060 OVC140 56 49     77%       29.94 0    
Jun 07 21:56 3 10 Cloudy FEW050 SCT090 BKN110 OVC220 60 42     51%              
Jun 07 11:56 WNW 7 10 Mostly Cloudy FEW050 SCT120 BKN190 63 47     56%     29.79 29.79      
Jun 07 05:56 Calm 10 Cloudy FEW120 SCT160 OVC250 52 43     71%     29.9